O3b星座 FM2星 (O3B FM2)

导读

O3B FM2是O3b卫星星座系列的第一代通信卫星,由英国阿莱尼亚宇航公司研发。于2013年6月25日在圭亚那航天中心发射,由联盟ST-B Fregat-MT运载火箭送入轨道。卫星质量约700kg,运行于高度7825km的中地球轨道,轨道倾角0°,设计寿命10年,是O3b提供中低时延通信服务的重要组成部分。

基本信息
目录编号:
39190
目录名称:
O3B FM2
国际标识:
2013-031C
轨道中心:
EARTH
卫星名称:
O3b星座 FM2星
卫星全名:
O3b星座 FM2星 (O3B FM2)
卫星状态:
在轨 (已飞行4826 天)
发射日期:
2013-06-25 UTC
国别 :
(O3B)
星等 :
--
轨道信息
数据来源 国际轨道数据
星历时间: 2026-09-10T17:04:36+0800
18小时前
查看轨道信息
半长轴: 14444.018km
偏心率: 0.0002618
轨道倾角: 0.035°
近地点辐角 166.536°
升交点赤经 358.191°
平近点角 195.280°
近地点: 8062.099km
远地点: 8069.663km
周期: 287.933分钟
每日圈数: 5.00116
详细信息
平衡模式:
三轴稳定
覆盖范围:
全球
运营商:
欧洲卫星公司
运营商所在国:
卢森堡
制造商(研发单位):
阿莱尼亚宇航公司
制造商所在国:
意大利
使用方式:
暂无
卫星简介
O3b卫星星座分为O3b FM卫星星座和O3b mPOWER卫星星座,前者是由阿莱尼亚宇航公司制造的第一代O3b卫星星座,后者是由波音公司制造的第二代O3b卫星星座。O3b卫星初始星座运行于赤道圆轨道,轨道高度8062公里,能够覆盖全球南北纬45°之间所有地方,在南、北纬45°~62°范围内也能提供一定的服务。该卫星仍在工作。
2D轨道图
3D轨道图
轨道高度分析图
轨道倾角分析图
轨道综合分析图
查看轨道综合分析图
与全量物体交会距离演化趋势
与全量物体交会风险概率演化趋势